Flag for Norfolk Island Weather past 2 weeks in Kingston, Norfolk Island

Now
63 °F

Passing clouds.


Feels Like: 63 °F
Forecast: 63 / 70 °F
Wind: 7 mph from West

Location: Norfolk Island Airport

Current Time: May 31, 2015 at 6:33:09 AM

Latest Report: May 31, 2015 at 6:00 AM


Visibility: N/A

Pressure: 30.01 "Hg

Humidity: 83%

Dew point: 57 °F

Location of KingstonLocation

Historic Weather in Kingston — Graph

°F

Kingston temperature yesterday

Maximum temperature yesterday: 68 °F (at 12:00 PM)
Minimum temperature yesterday: 55 °F (at 7:30 AM)
Average temperature yesterday: 62 °F

Past Weeks' High & Low Weather Summary

 TemperatureHumidityPressure
High72 °F (May 22, 11:00 AM)100% (May 22, 3:00 AM)30.33 "Hg (May 22, 3:00 AM)
Low55 °F (May 30, 7:30 AM)38% (May 19, 11:00 AM)29.68 "Hg (May 23, 5:30 AM)
Average64 °F64%30.17 "Hg
* Reported May 16 5:30 AM — May 31 5:30 AM, Kingston, Weather by CustomWeather, © 2015

Note: Actual official high and low records may vary slightly from our data, if they occured in-between our weather recording intervals... More about our weather records

Advertising

Kingston weather history for previous 24 hours

 ConditionsComfort  
Time TempWeatherWind HumidityBarometerVisibility
5:30 AM
Sun, May 31
64 °FPassing clouds.7 mph78%30.01 "HgN/A
5:00 AM64 °FPassing clouds.6 mph88%30.01 "HgN/A
4:30 AM64 °FPartly cloudy.8 mph88%30.01 "HgN/A
4:00 AM64 °FPartly cloudy.10 mph94%30.01 "HgN/A
3:30 AM64 °FPartly cloudy.9 mph88%30.01 "HgN/A
3:00 AM64 °FMostly cloudy.9 mph88%30.01 "HgN/A
2:30 AM63 °FOvercast.12 mph94%30.04 "HgN/A
2:00 AM63 °FMostly cloudy.12 mph94%30.04 "Hg4 mi
1:30 AM63 °FMostly cloudy.16 mph94%30.07 "Hg2 mi
12:30 AM64 °FMostly cloudy.10 mph78%30.04 "HgN/A
12:00 AM64 °FOvercast.12 mph73%30.07 "HgN/A
11:30 PM
Sat, May 30
64 °FOvercast.9 mph68%30.07 "HgN/A
11:00 PM64 °FMostly cloudy.9 mph68%30.07 "HgN/A
10:30 PM64 °FOvercast.8 mph64%30.07 "HgN/A
10:00 PM64 °FPassing clouds.8 mph64%30.09 "HgN/A
9:30 PM64 °FPassing clouds.9 mph64%30.09 "HgN/A
9:00 PM64 °FPassing clouds.8 mph64%30.09 "HgN/A
8:30 PM64 °FPassing clouds.9 mph60%30.09 "HgN/A
8:00 PM64 °FPassing clouds.8 mph60%30.09 "HgN/A
7:30 PM63 °FPassing clouds.8 mph64%30.09 "HgN/A
7:00 PM63 °FPassing clouds.6 mph64%30.09 "HgN/A
6:30 PM63 °FPassing clouds.6 mph64%30.09 "HgN/A
6:00 PM63 °FPassing clouds.6 mph59%30.09 "HgN/A
5:30 PM63 °FPassing clouds.6 mph59%30.09 "HgN/A
5:00 PM64 °FPassing clouds.7 mph56%30.09 "HgN/A
4:30 PM64 °FScattered clouds.7 mph56%30.09 "HgN/A
4:00 PM66 °FScattered clouds.9 mph52%30.07 "HgN/A
3:30 PM66 °FPartly sunny.10 mph52%30.09 "HgN/A
3:00 PM66 °FPartly sunny.8 mph52%30.09 "HgN/A
2:30 PM66 °FScattered clouds.10 mph49%30.09 "HgN/A
2:00 PM64 °FScattered clouds.8 mph52%30.12 "HgN/A
1:30 PM66 °FPartly sunny.7 mph49%30.15 "HgN/A
1:00 PM66 °FScattered clouds.6 mph49%30.15 "HgN/A
12:30 PM68 °FPassing clouds.6 mph46%30.18 "HgN/A
12:00 PM68 °FPassing clouds.8 mph46%30.18 "HgN/A
11:30 AM66 °FPassing clouds.8 mph46%30.21 "HgN/A
11:00 AM66 °FScattered clouds.8 mph49%30.21 "HgN/A
10:30 AM66 °FPartly sunny.8 mph49%30.24 "HgN/A
10:00 AM66 °FPartly sunny.7 mph49%30.24 "HgN/A
9:30 AM64 °FSunny.7 mph52%30.24 "HgN/A
9:00 AM64 °FPartly sunny.6 mph52%30.21 "HgN/A
8:00 AM61 °FSunny.5 mph59%30.21 "HgN/A
7:30 AM55 °FScattered clouds.3 mph67%30.21 "HgN/A
7:00 AM57 °FPartly sunny.No wind63%30.21 "HgN/A
6:30 AM59 °FClear.No wind59%30.21 "HgN/A
6:00 AM59 °FClear.No wind59%30.18 "HgN/A
Weather by CustomWeather, © 2015

See weather overviewHow to use our weather pages